NILESAT 201

Last updated on Wed Sep 09 2026 00:02:59 GMT+0000 (Coordinated Universal Time)

1 36830U 10037A 26251.37245285 -.00000078 00000+0 00000+0 0 9997 2 36830 0.0324 223.1260 0005520 310.9797 300.4225 1.00271915 59214
UTC large
Height (km)
Speed (km/s)
/
Latitude / Longitude
Inclination (degrees)
Orbital Period (minutes)
Azimuth
Elevation
Range (km)
Doppler Factor

Next 0 passes for location: London (51.5072 / 0.1276)

No passes found over London.
NILESAT 201